Powrót do katalogu

COSMOS 1922

AktywnyMilitariaHEO
NORAD 18881·PAYLOAD·🇷🇺 Russia

Wystrzelony Feb 26, 1988 z Plesetsk Cosmodrome

Loading…

Następne Przeloty (najbliższe 24 godziny)

TLE

ŚwieżeSource: Space-Track

Epoka: Sep 14, 2026, 12:43 UTC

1 18881U 88013A   26257.53021686  .00000418  00000-0  00000-0 0  9992
2 18881  68.7821  67.0630 5927026  41.8247 350.7792  2.00835904282320

Śledź COSMOS 1922 w czasie rzeczywistym z AllMySat

Download on the App Store